Weather observations for the past three days for
Frankfort, Frankfort Dow Memorial Field Airport
Imperial (Metric)
Date Time (edt) Wind (mph) Vis. (mi.) Weather Sky Cond. Temperature (ºF) Relative Humidity Wind Chill (°F) Heat Index (°F) Pressure Precipitation (in)
Air Dwpt 6 hour altimeter (in) sea level (mb) 1 hr 3 hr 6 hr
Max. Min.
06 05:15 Calm 10.00 Mostly Cloudy BKN080 33.8 26.6 75% 29.87 0.0
06 04:55 Calm 10.00 Fair CLR 33.8 26.6 75% 29.87 0.0
06 04:35 Vrbl 1 10.00 Fair CLR 35.6 26.6 70% 29.86 0.0
06 04:15 Vrbl 3 10.00 Mostly Cloudy BKN075 37.4 26.6 65% 29.86 0.0
06 03:55 NE 2 10.00 Overcast OVC075 37.4 26.6 65% 29.86 0.0
06 03:35 E 3 10.00 Partly Cloudy SCT075 37.4 26.6 65% 29.85 0.0
06 03:15 E 5 10.00 Partly Cloudy SCT075 37.4 26.6 65% 34 29.85 0.0
06 02:55 Calm 10.00 Mostly Cloudy BKN075 37.4 28.4 70% 29.86 0.0
06 02:35 Vrbl 2 10.00 Overcast OVC075 39.2 28.4 65% 29.86 0.0
06 02:15 E 5 10.00 Overcast OVC075 39.2 28.4 65% 36 29.85 0.0
06 01:55 Vrbl 3 10.00 Overcast OVC075 39.2 30.2 45.9 38.7 70% 29.85 0.0
06 01:35 E 5 10.00 Overcast OVC075 39.2 30.2 70% 36 29.85 0.0
06 01:15 E 6 10.00 Mostly Cloudy BKN075 39.2 30.2 70% 36 29.84 0.0
06 00:55 Vrbl 5 10.00 A Few Clouds FEW075 39.2 30.2 70% 36 29.84 0.0
06 00:35 Vrbl 6 10.00 Overcast OVC075 39.2 30.2 70% 36 29.84 0.0
06 00:15 Vrbl 3 10.00 Mostly Cloudy BKN075 41 30.2 66% 29.84 0.0
05 23:55 Vrbl 7 10.00 Overcast OVC075 41 30.2 66% 37 29.83 0.0
05 23:35 NE 7 10.00 Overcast OVC075 41 32 70% 37 29.82 0.0
05 23:15 NE 6 10.00 Overcast OVC075 41 33.8 76% 38 29.82 0.0
05 22:55 Vrbl 3 10.00 Overcast OVC075 41 33.8 76% 29.81 0.0
05 22:35 N 6 10.00 Overcast OVC075 41 33.8 76% 38 29.81 0.0
05 22:15 N 6 10.00 Mostly Cloudy BKN075 42.8 32 66% 40 29.8 0.0
05 21:55 N 7 10.00 Partly Cloudy SCT075 42.8 32 66% 39 29.79 0.0
05 21:35 N 2 10.00 A Few Clouds FEW075 41 32 70% 29.79 0.0
05 21:15 W 5 10.00 Overcast OVC075 42.8 32 66% 41 29.78 0.0
05 20:55 NW 7 10.00 Overcast OVC075 44.6 32 61% 41 29.78 0.0
05 20:35 Vrbl 3 10.00 Overcast OVC075 44.6 33.8 66% 29.78 0.0
05 20:15 Vrbl 3 10.00 Overcast OVC075 44.6 33.8 66% 29.77 0.0
05 19:55 Vrbl 5 10.00 Mostly Cloudy BKN075 44.6 32 52 45.9 61% 43 29.77 0.0
05 19:35 Vrbl 3 10.00 Partly Cloudy SCT075 48.2 32 54% 29.76 0.0
05 19:15 SW 7 10.00 Fair CLR 48.2 30.2 50% 46 29.76 0.0
05 18:55 SW 8 10.00 Fair CLR 48.2 30.2 50% 45 29.76 0.0
05 18:35 SW 8 10.00 Fair CLR 50 30.2 47% 47 29.76 0.0
05 18:15 SW 7 10.00 A Few Clouds FEW070 50 32 50% 48 29.75 0.0
05 17:55 SW 8 10.00 Fair CLR 50 30.2 47% 47 29.75 0.0
05 17:35 S 10 10.00 Fair CLR 51.8 30.2 44% 29.75 0.0
05 17:15 S 10 10.00 Fair CLR 51.8 30.2 44% 29.75 0.0
05 16:55 SW 8 10.00 Fair CLR 51.8 28.4 41% 29.75 0.0
05 16:35 SW 10 10.00 Fair CLR 51.8 26.6 38% 29.75 0.0
05 16:15 SW 9 10.00 Fair CLR 50 28.4 43% 47 29.75 0.0
05 15:55 S 9 10.00 Fair CLR 48.2 26.6 43% 45 29.74 0.0
05 15:35 SW 7 10.00 Fair CLR 48.2 28.4 46% 46 29.74 0.0
05 15:15 SW 10 10.00 Fair CLR 48.2 26.6 43% 44 29.75 0.0
05 14:55 SW 9 10.00 Fair CLR 50 28.4 43% 47 29.75 0.0
05 14:35 Vrbl 7 G 18 10.00 Fair CLR 50 28.4 43% 48 29.74 0.0
05 14:15 SW 12 10.00 Fair CLR 51.8 26.6 38% 29.74 0.0
05 13:55 W 13 G 16 10.00 Fair CLR 50 24.8 51.6 43 37% 46 29.74 0.0
05 13:35 W 9 10.00 Fair CLR 50 24.8 37% 47 29.73 0.0
05 13:15 W 10 10.00 Fair CLR 50 26.6 40% 46 29.73 0.0
05 12:55 W 10 G 17 10.00 Fair CLR 50 28.4 43% 46 29.73 0.0
05 12:35 W 9 10.00 Fair CLR 50 28.4 43% 47 29.73 0.0
05 12:15 W 13 G 18 10.00 Fair CLR 50 28.4 43% 46 29.73 0.0
05 11:55 W 13 10.00 Fair CLR 50 28.4 43% 46 29.73 0.0
05 11:35 W 12 G 18 10.00 Fair CLR 48.2 28.4 46% 44 29.73 0.0
05 11:15 W 13 G 18 10.00 Fair CLR 48.2 30.2 50% 43 29.74 0.0
05 10:55 W 9 10.00 Fair CLR 48.2 32 54% 45 29.74 0.0
05 10:35 W 12 G 20 10.00 Fair CLR 46.4 32 57% 42 29.73 0.0
05 10:15 W 12 G 20 10.00 Fair CLR 46.4 30.2 53% 42 29.73 0.0
05 09:55 W 9 G 17 10.00 Fair CLR 46.4 28.4 50% 42 29.72 0.0
05 09:35 W 13 G 20 10.00 Fair CLR 46.4 30.2 53% 41 29.71 0.0
05 09:15 NW 8 G 16 10.00 Fair CLR 46.4 30.2 53% 43 29.7 0.0
05 08:55 W 12 10.00 Fair CLR 44.6 32 61% 39 29.69 0.0
05 08:35 W 7 10.00 Partly Cloudy SCT060 44.6 32 61% 41 29.68 0.0
05 08:15 NW 9 10.00 Overcast OVC060 42.8 32 66% 38 29.68 0.0
05 07:55 W 10 10.00 Overcast OVC060 44.6 30.2 48.6 38.7 57% 40 29.67 0.0
05 07:35 W 9 10.00 Overcast OVC060 42.8 32 66% 38 29.67 0.0
05 07:15 W 10 10.00 Overcast OVC060 42.8 33.8 71% 38 29.66 0.0
05 06:55 W 6 10.00 Overcast OVC050 42.8 32 66% 40 29.65 0.0
05 06:35 W 3 10.00 Overcast OVC050 41 33.8 76% 29.65 0.0
05 06:15 N 1 10.00 Overcast OVC050 41 33.8 76% 29.64 0.0
05 05:55 Calm 10.00 Overcast BKN060 OVC070 39.2 33.8 81% 29.63 0.0
05 05:35 W 1 10.00 Overcast OVC060 39.2 33.8 81% 29.62 0.0
05 05:15 Calm 10.00 Overcast BKN060 OVC070 39.2 33.8 81% 29.61 0.0
05 04:55 Calm 10.00 Overcast OVC070 39.2 33.8 81% 29.6 0.0
05 04:35 N 2 10.00 Overcast OVC070 41 35.6 81% 29.6 0.0
05 04:15 N 2 10.00 Overcast OVC070 42.8 33.8 71% 29.59 0.0
05 03:55 N 5 10.00 Overcast OVC070 44.6 33.8 66% 43 29.59 0.0
05 03:35 N 3 10.00 Mostly Cloudy BKN070 44.6 33.8 66% 29.58 0.0
05 03:15 N 3 10.00 Mostly Cloudy BKN070 46.4 32 57% 29.58 0.0
05 02:55 NE 3 10.00 Mostly Cloudy BKN070 46.4 32 57% 29.57 0.0
05 02:35 Vrbl 5 10.00 Partly Cloudy SCT070 46.4 32 57% 45 29.56 0.0
05 02:15 NE 5 10.00 Partly Cloudy FEW060 SCT080 48.2 33.8 58% 47 29.56 0.0
05 01:55 Vrbl 5 10.00 Fair CLR 48.2 33.8 51.3 47.7 58% 47 29.55 0.0
05 01:35 Vrbl 3 10.00 Fair CLR 48.2 33.8 58% 29.55 0.0
05 01:15 NE 6 10.00 Fair CLR 50 35.6 58% 48 29.54 0.0
05 00:55 NE 8 10.00 Fair CLR 50 37.4 62% 47 29.53 0.0
05 00:35 NE 10 G 17 10.00 Fair CLR 50 37.4 62% 46 29.5 0.0
05 00:15 NE 7 G 16 10.00 Fair CLR 50 39.2 67% 48 29.48 0.0
04 23:55 Vrbl 7 G 17 10.00 Fair CLR 50 39.2 67% 48 29.47 0.0
04 23:35 Vrbl 5 10.00 A Few Clouds FEW120 50 39.2 67% 49 29.46 0.0
04 23:15 N 5 10.00 Overcast OVC110 50 39.2 67% 49 29.46 0.0
04 22:55 NW 2 10.00 Mostly Cloudy BKN110 50 39.2 67% 29.44 0.0
04 22:35 NW 3 10.00 Partly Cloudy SCT120 50 41 71% 29.43 0.0
04 22:15 N 2 10.00 A Few Clouds FEW120 48.2 44.6 87% 29.42 0.0
04 21:55 N 2 10.00 Mostly Cloudy BKN110 48.2 44.6 87% 29.41 0.0
04 21:35 E 2 10.00 Overcast OVC110 50 44.6 82% 29.41 0.0
04 21:15 Vrbl 2 10.00 Overcast OVC100 48.2 46.4 94% 29.4 0.0
04 20:55 N 3 10.00 Overcast OVC100 48.2 46.4 94% 29.4 0.0
04 20:35 Vrbl 2 10.00 Overcast OVC100 48.2 46.4 94% 29.4 0.0
04 20:15 S 3 9.00 Light Rain BKN090 50 46.4 88% 29.39 0.0
04 19:55 Vrbl 5 10.00 Light Rain FEW060 BKN085 OVC100 50 44.6 67.3 49.6 82% 49 29.38 0.0 0.04
04 19:35 Vrbl 7 10.00 Light Rain FEW055 BKN085 OVC110 51.8 41 67% 29.4 0.0
04 19:15 SW 10 G 21 10.00 Light Rain SCT060 BKN085 OVC100 53.6 42.8 67% 29.38 0.0
04 18:55 SW 15 G 23 10.00 Light Rain OVC080 57.2 42.8 59% 29.37 0.0 0.02
04 18:35 S 10 G 22 10.00 Light Rain FEW035 BKN090 OVC110 59 42.8 55% 29.35 0.0
04 18:15 S 20 G 31 10.00 Overcast BKN090 OVC110 62.6 39.2 42% 29.35 0.0
04 17:55 S 20 G 33 10.00 Mostly Cloudy FEW034 FEW048 BKN090 62.6 39.2 42% 29.33 0.0
04 17:35 S 18 G 30 9.00 Light Rain SCT048 SCT075 OVC090 62.6 39.2 42% 29.35 0.0
04 17:15 S 21 G 29 10.00 Overcast and Breezy FEW038 FEW060 OVC090 64.4 37.4 37% 29.36 0.0
04 16:55 S 22 G 35 10.00 Overcast and Breezy OVC090 64.4 37.4 37% 29.36 0.0
04 16:35 S 18 G 32 10.00 Overcast OVC090 64.4 35.6 34% 29.36 0.0
04 16:15 S 22 G 37 10.00 Overcast and Breezy OVC090 64.4 35.6 34% 29.36 0.0
04 15:55 S 25 G 38 10.00 Mostly Cloudy and Breezy BKN100 64.4 35.6 34% 29.37 0.0
04 15:35 S 23 G 37 10.00 A Few Clouds and Breezy FEW100 66.2 35.6 32% 29.37 0.0
04 15:15 S 25 G 39 10.00 A Few Clouds and Breezy FEW110 66.2 35.6 32% 29.37 0.0
04 14:55 S 24 G 33 10.00 A Few Clouds and Breezy FEW120 64.4 35.6 34% 29.38 0.0
04 14:35 S 20 G 35 10.00 Fair CLR 66.2 35.6 32% 29.39 0.0
04 14:15 S 20 G 36 10.00 Partly Cloudy SCT100 66.2 35.6 32% 29.39 0.0
04 13:55 S 20 G 37 10.00 Mostly Cloudy BKN100 66.2 35.6 66 43.7 32% 29.39 0.0
04 13:35 S 21 G 35 10.00 Fair and Breezy CLR 64.4 35.6 34% 29.39 0.0
04 13:15 S 18 G 33 10.00 Fair CLR 64.4 35.6 34% 29.4 0.0
04 12:55 SW 20 G 32 10.00 Fair CLR 62.6 35.6 37% 29.41 0.0
04 12:35 S 20 G 29 10.00 Fair CLR 60.8 35.6 39% 29.42 0.0
04 12:15 S 17 G 29 10.00 Fair CLR 62.6 35.6 37% 29.43 0.0
04 11:55 SW 18 G 29 10.00 Fair CLR 60.8 35.6 39% 29.44 0.0
04 11:35 S 16 G 28 10.00 Fair CLR 62.6 35.6 37% 29.45 0.0
04 11:15 S 15 G 35 10.00 Fair CLR 62.6 35.6 37% 29.45 0.0
04 10:55 S 20 G 28 10.00 Fair CLR 62.6 35.6 37% 29.46 0.0
04 10:35 S 16 G 28 10.00 Fair CLR 62.6 37.4 39% 29.46 0.0
04 10:15 SW 16 G 25 10.00 Fair CLR 60.8 35.6 39% 29.47 0.0
04 09:55 S 16 G 23 10.00 Fair CLR 59 35.6 42% 29.48 0.0
04 09:35 S 15 G 22 10.00 Fair CLR 59 33.8 39% 29.49 0.0
04 09:15 S 8 10.00 Fair CLR 57.2 39.2 51% 29.49 0.0
04 08:55 Vrbl 6 10.00 Fair CLR 55.4 39.2 55% 29.49 0.0
04 08:35 Vrbl 3 10.00 Fair CLR 53.6 41 63% 29.5 0.0
04 08:15 E 2 10.00 Fair CLR 50 42.8 76% 29.5 0.0
04 07:55 Vrbl 3 10.00 Fair CLR 44.6 41 47.1 34.2 87% 29.51 0.0
04 07:35 Calm 10.00 Fair CLR 39.2 37.4 93% 29.51 0.0
04 07:15 Vrbl 2 10.00 Fair CLR 37.4 35.6 93% 29.52 0.0
04 06:55 NW 2 10.00 Fair CLR 37.4 35.6 93% 29.52 0.0
04 06:35 E 3 10.00 Fair CLR 39.2 37.4 93% 29.52 0.0
04 06:15 Vrbl 1 10.00 Fair CLR 37.4 35.6 93% 29.53 0.0
04 05:55 Vrbl 2 10.00 Fair CLR 37.4 35.6 93% 29.54 0.0
04 05:35 Vrbl 1 10.00 Fair CLR 37.4 37.4 100% 29.55 0.0
04 05:15 W 2 10.00 Fair CLR 35.6 35.6 100% 29.54 0.0
04 04:55 NW 2 10.00 Fair CLR 35.6 33.8 93% 29.55 0.0
04 04:35 Vrbl 1 10.00 Fair CLR 37.4 37.4 100% 29.56 0.0
04 04:15 NE 3 10.00 Fair CLR 39.2 37.4 93% 29.56 0.0
04 03:55 NW 1 10.00 Fair CLR 37.4 35.6 93% 29.57 0.0
04 03:35 Calm 10.00 Fair CLR 39.2 37.4 93% 29.57 0.0
04 03:15 Calm 10.00 Fair CLR 39.2 37.4 93% 29.58 0.0
04 02:55 N 2 10.00 Fair CLR 39.2 35.6 87% 29.59 0.0
04 02:35 Calm 10.00 Fair CLR 44.6 39.2 81% 29.59 0.0
04 02:15 Calm 10.00 Fair CLR 46.4 39.2 76% 29.59 0.0
04 01:55 SW 5 10.00 Fair CLR 46.4 39.2 55.4 46.9 76% 45 29.6 0.0
04 01:35 Vrbl 5 10.00 Fair CLR 48.2 39.2 71% 47 29.61 0.0
04 01:15 W 6 10.00 Fair CLR 50 39.2 67% 48 29.61 0.0
04 00:55 W 8 10.00 Fair CLR 51.8 41 67% 29.6 0.0
04 00:35 W 7 10.00 Fair CLR 53.6 41 63% 29.6 0.0
04 00:15 W 8 10.00 Fair CLR 53.6 41 63% 29.6 0.0
03 23:55 Vrbl 2 10.00 Fair CLR 53.6 39.2 58% 29.59 0.0
03 23:35 Vrbl 2 10.00 Partly Cloudy SCT090 53.6 41 63% 29.59 0.0
03 23:15 Vrbl 3 10.00 Partly Cloudy SCT090 53.6 41 63% 29.59 0.0
03 22:55 Vrbl 3 10.00 Fair CLR 53.6 41 63% 29.6 0.0
03 22:35 Vrbl 5 10.00 Fair CLR 53.6 41 63% 29.6 0.0
03 22:15 Vrbl 5 10.00 Fair CLR 51.8 41 67% 29.6 0.0
03 21:55 Vrbl 5 10.00 A Few Clouds FEW110 53.6 41 63% 29.6 0.0
03 21:35 S 6 10.00 Mostly Cloudy BKN110 53.6 42.8 67% 29.61 0.0
03 21:15 S 7 10.00 Mostly Cloudy BKN100 53.6 41 63% 29.61 0.0
03 20:55 S 13 G 20 10.00 Light Rain FEW050 FEW065 SCT085 53.6 41 63% 29.61 0.0 0.01
03 20:35 SW 31 G 46 5.00 Light Rain Haze and Windy FEW048 BKN065 OVC075 51.8 42.8 72% 29.61 0.0
03 20:15 S 10 G 20 10.00 Light Rain BKN065 OVC085 53.6 41 63% 29.63 0.0
03 19:55 S 21 G 26 10.00 Overcast and Breezy FEW070 BKN085 OVC110 55.4 39.2 55.6 49.5 55% 29.61 0.0
03 19:35 S 17 G 24 10.00 Mostly Cloudy BKN110 55.4 37.4 51% 29.61 0.0
03 19:15 S 18 G 32 10.00 Fair CLR 55.4 37.4 51% 29.61 0.0
03 18:55 S 21 G 30 10.00 Fair and Breezy CLR 55.4 37.4 51% 29.62 0.0
03 18:35 S 17 G 29 10.00 Fair CLR 53.6 39.2 58% 29.62 0.0
03 18:15 S 18 G 32 10.00 A Few Clouds FEW090 53.6 39.2 58% 29.62 0.0
03 17:55 S 17 G 30 10.00 Partly Cloudy SCT090 SCT110 55.4 39.2 55% 29.63 0.0
03 17:35 S 20 G 28 10.00 Partly Cloudy FEW085 SCT100 53.6 39.2 58% 29.64 0.0
03 17:15 S 15 G 33 10.00 Mostly Cloudy BKN110 53.6 39.2 58% 29.65 0.0
03 16:55 S 22 G 33 10.00 Partly Cloudy and Breezy SCT100 53.6 39.2 58% 29.66 0.0
03 16:35 S 22 G 37 10.00 A Few Clouds and Breezy FEW100 53.6 39.2 58% 29.67 0.0
03 16:15 S 21 G 31 10.00 Partly Cloudy and Breezy FEW100 SCT120 55.4 41 59% 29.68 0.0
03 15:55 S 22 G 30 10.00 Partly Cloudy and Breezy SCT100 SCT120 53.6 41 63% 29.69 0.0
03 15:15 S 16 G 29 10.00 Mostly Cloudy BKN065 BKN085 51.8 39.2 62% 29.7 0.0
03 14:55 SW 14 G 22 10.00 Overcast OVC065 51.8 39.2 62% 29.71 0.0
03 14:35 S 14 G 24 10.00 Overcast OVC065 50 41 71% 45 29.71 0.0
03 14:15 S 12 G 20 10.00 Light Rain OVC065 50 41 71% 46 29.71 0.0
03 13:55 S 12 G 24 10.00 Light Rain BKN060 OVC070 50 39.2 50.7 43.5 67% 46 29.72 0.0
03 13:35 S 10 G 22 10.00 Light Rain FEW032 FEW041 OVC060 50 39.2 67% 46 29.72 0.0
03 13:15 S 13 G 18 10.00 Overcast OVC060 50 37.4 62% 46 29.73 0.0
03 12:55 S 10 G 20 10.00 Overcast OVC070 50 35.6 58% 46 29.74 0.0
03 12:35 S 13 G 25 10.00 Overcast OVC070 50 35.6 58% 46 29.75 0.0
03 12:15 S 17 G 24 10.00 Overcast OVC070 50 33.8 54% 45 29.75 0.0
03 11:55 S 16 G 23 10.00 Overcast OVC070 50 35.6 58% 45 29.75 0.0
03 11:35 S 15 G 22 10.00 Overcast OVC070 48.2 35.6 62% 43 29.76 0.0
03 11:15 S 16 G 22 10.00 Overcast OVC060 48.2 35.6 62% 43 29.77 0.0
03 10:55 S 9 10.00 Overcast OVC060 48.2 35.6 62% 45 29.77 0.0
03 10:35 S 10 G 18 10.00 Overcast OVC070 46.4 37.4 71% 42 29.78 0.0
03 10:15 S 10 G 16 10.00 Overcast BKN060 BKN065 OVC075 48.2 37.4 66% 44 29.77 0.0
03 09:55 SW 7 10.00 Light Rain OVC050 44.6 41 87% 41 29.78 0.0 0.01
03 09:35 Vrbl 1 8.00 Light Rain FEW039 OVC048 44.6 39.2 81% 29.78 0.0
03 09:15 Vrbl 6 10.00 Light Rain SCT040 OVC048 44.6 37.4 76% 42 29.79 0.0
03 08:55 S 5 10.00 Light Rain BKN050 OVC065 44.6 35.6 71% 43 29.79 0.0
03 08:35 SW 6 G 16 10.00 Light Rain OVC048 44.6 35.6 71% 42 29.8 0.0
03 08:15 S 7 10.00 Light Rain OVC050 44.6 35.6 71% 41 29.8 0.0
03 07:55 S 12 G 16 10.00 Light Rain BKN050 OVC070 44.6 35.6 47.3 42.4 71% 39 29.78 0.0
03 07:35 S 9 G 16 8.00 Light Rain SCT055 OVC070 46.4 33.8 62% 42 29.79 0.0
03 07:15 Vrbl 6 10.00 Overcast OVC070 46.4 35.6 66% 44 29.79 0.0
03 06:55 Vrbl 2 10.00 Overcast OVC070 44.6 37.4 76% 29.78 0.0
03 06:35 Vrbl 3 10.00 Mostly Cloudy BKN070 BKN080 BKN100 42.8 37.4 81% 29.79 0.0
03 06:15 Vrbl 5 9.00 Light Rain FEW055 SCT070 BKN085 44.6 35.6 71% 43 29.8 0.0
03 05:55 Vrbl 5 10.00 Overcast FEW070 OVC100 44.6 33.8 66% 43 29.8 0.0
03 05:35 Vrbl 7 10.00 Mostly Cloudy BKN110 46.4 32 57% 43 29.8 0.0
Date Time (edt) Wind (mph) Vis. (mi.) Weather Sky Cond. Air Dwpt Max. Min. Relative Humidity Wind Chill (°F) Heat Index (°F) altimeter (in) sea level (mb) 1 hr 3 hr 6 hr
6 hour
Temperature (ºF) Pressure Precipitation (in)